QPF
0.00 0.00 0.00 0.00 0.00 0.00 0.00 0.00 0.00 0.00 0.00 0.00 0.00 0.00 0.00 0.00 0.00 0.00 0.00 0.00 0.00 0.00 0.00 0.00 0.00 0.00 0.00 0.00 0.00 0.00 0.00 0.00 0.00 0.00 0.00 0.00 0.00 0.00 0.00 0.00 0.00 0.00 0.00 0.01
0.00 0.00 0.00 0.00 0.00 0.00 0.00 0.00 0.00 0.00 0.00 0.00 0.00 0.00 0.00 0.00 0.00 0.00 0.00 0.00 0.00 0.00 0.00 0.00 0.00 0.00 0.00 0.00 0.00 0.00 0.00 0.00 0.00 0.00 0.00 0.00 0.00 0.00 0.00 0.00 0.00 0.00 0.00 0.00
0.00 0.00 0.00 0.00 0.00 0.00 0.00 0.00 0.00 0.00 0.00 0.00 0.00 0.00 0.00 0.00 0.00 0.00 0.00 0.00 0.00 0.00 0.00 0.00 0.00 0.00 0.00 0.00 0.00 0.00 0.00 0.00 0.00 0.00 0.00 0.00 0.00 0.00 0.00 0.00 0.00 0.00 0.00 0.00
0.00 0.00 0.00 0.00 0.00 0.00 0.00 0.00 0.00 0.00 0.00 0.00 0.00 0.00 0.00 0.00 0.00 0.00 0.00 0.00 0.00 0.00 0.00 0.00 0.00 0.00 0.00 0.00 0.00 0.00 0.00 0.00 0.00 0.00 0.00 0.00 0.00 0.00 0.00 0.00 0.00 0.00 0.00 0.00
0.00 0.00 0.00 0.00 0.00 0.00 0.00 0.00 0.00 0.00 0.00 0.00 0.00 0.00 0.00 0.00 0.00 0.00 0.00 0.00 0.00 0.00 0.00 0.00 0.00 0.00 0.00 0.00 0.00 0.00 0.00 0.00 0.00 0.00 0.00 0.00 0.00 0.00 0.00 0.00 0.00 0.00 0.00 0.00
0.00 0.00 0.00 0.00 0.00 0.00 0.00 0.00 0.00 0.00 0.00 0.00 0.00 0.00 0.00 0.00 0.00 0.00 0.00 0.00 0.00 0.00 0.00 0.00 0.00 0.00 0.00 0.00 0.00 0.00 0.00 0.00 0.00 0.00 0.00 0.00 0.00 0.00 0.00 0.00 0.00 0.00 0.00 0.00
0.00 0.00 0.00 0.00 0.00 0.00 0.00 0.00 0.00 0.00 0.00 0.00 0.00 0.00 0.00 0.00 0.00 0.00 0.00 0.00 0.00 0.00 0.00 0.00 0.00 0.00 0.00 0.00 0.00 0.00 0.00 0.00 0.00 0.00 0.00 0.00 0.00 0.00 0.00 0.00 0.00 0.00 0.00 0.00
0.00 0.00 0.00 0.00 0.00 0.00 0.00 0.00 0.00 0.00 0.00 0.00 0.00 0.00 0.00 0.00 0.00 0.00 0.00 0.00 0.00 0.00 0.00 0.00 0.00 0.00 0.00 0.00 0.00 0.00 0.00 0.00 0.00 0.00 0.00 0.00 0.00 0.00 0.00 0.00 0.00 0.00 0.00 0.00
0.00 0.00 0.00 0.00 0.00 0.00 0.00 0.00 0.00 0.00 0.00 0.00 0.00 0.00 0.00 0.00 0.00 0.00 0.00 0.00 0.00 0.00 0.00 0.00 0.00 0.00 0.00 0.00 0.00 0.00 0.00 0.00 0.00 0.00 0.00 0.00 0.00 0.00 0.00 0.00 0.00 0.00 0.00 0.00
0.00 0.00 0.00 0.00 0.00 0.00 0.00 0.00 0.00 0.00 0.00 0.00 0.00 0.00 0.00 0.00 0.00 0.00 0.00 0.00 0.00 0.00 0.00 0.00 0.00 0.00 0.00 0.00 0.00 0.00 0.00 0.00 0.00 0.00 0.00 0.00 0.00 0.00 0.00 0.00 0.00 0.00 0.00 0.00
0.00 0.00 0.00 0.00 0.00 0.00 0.00 0.00 0.00 0.00 0.00 0.00 0.00 0.00 0.00 0.00 0.00 0.00 0.00 0.00 0.00 0.00 0.00 0.00 0.00 0.00 0.00 0.00 0.00 0.00 0.00 0.00 0.00 0.00 0.00 0.00 0.00 0.00 0.00 0.00 0.00 0.00 0.00 0.00
0.00 0.00 0.00 0.00 0.00 0.00 0.00 0.00 0.00 0.00 0.00 0.00 0.00 0.00 0.00 0.00 0.00 0.00 0.00 0.00 0.00 0.00 0.00 0.00 0.00 0.00 0.00 0.00 0.00 0.00 0.00 0.00 0.00 0.00 0.00 0.00 0.00 0.00 0.00 0.00 0.00 0.00 0.00 0.00
0.00 0.00 0.00 0.00 0.00 0.00 0.00 0.00 0.00 0.00 0.00 0.00 0.00 0.00 0.00 0.00 0.00 0.00 0.00 0.00 0.00 0.00 0.00 0.00 0.00 0.00 0.00 0.00 0.00 0.00 0.00 0.00 0.00 0.00 0.00 0.00 0.00 0.00 0.00 0.00 0.00 0.00 0.00 0.00
0.00 0.00 0.00 0.00 0.00 0.00 0.00 0.00 0.00 0.00 0.00 0.00 0.00 0.00 0.00 0.00 0.00 0.00 0.00 0.00 0.00 0.00 0.00 0.00 0.00 0.00 0.00 0.00 0.00 0.00 0.00 0.00 0.00 0.00 0.00 0.00 0.00 0.00 0.00 0.00 0.00 0.00 0.00 0.00
0.00 0.00 0.00 0.00 0.00 0.00 0.00 0.00 0.00 0.00 0.00 0.00 0.00 0.00 0.00 0.00 0.00 0.00 0.00 0.00 0.00 0.00 0.00 0.00 0.00 0.00 0.00 0.00 0.00 0.00 0.00 0.00 0.00 0.00 0.00 0.00 0.00 0.00 0.00 0.00 0.00 0.00 0.00 0.00
0.00 0.00 0.00 0.00 0.00 0.00 0.00 0.00 0.00 0.00 0.00 0.00 0.00 0.00 0.00 0.00 0.00 0.00 0.00 0.00 0.00 0.00 0.00 0.00 0.00 0.00 0.00 0.00 0.00 0.00 0.00 0.00 0.00 0.00 0.00 0.00 0.00 0.00 0.00 0.00 0.00 0.00 0.00 0.00
0.00 0.00 0.00 0.00 0.00 0.00 0.00 0.00 0.00 0.00 0.00 0.00 0.00 0.00 0.00 0.00 0.00 0.00 0.00 0.00 0.00 0.00 0.00 0.00 0.00 0.00 0.00 0.00 0.00 0.00 0.00 0.00 0.00 0.00 0.00 0.00 0.00 0.00 0.00 0.00 0.00 0.00 0.00 0.00
0.00 0.00 0.00 0.00 0.00 0.00 0.00 0.00 0.00 0.00 0.00 0.00 0.00 0.00 0.00 0.00 0.00 0.00 0.00 0.00 0.00 0.00 0.00 0.00 0.00 0.00 0.00 0.00 0.00 0.00 0.00 0.00 0.00 0.00 0.00 0.00 0.00 0.00 0.00 0.00 0.00 0.00 0.00 0.00
0.00 0.00 0.00 0.00 0.00 0.00 0.00 0.00 0.00 0.00 0.00 0.00 0.00 0.00 0.00 0.00 0.00 0.00 0.00 0.00 0.00 0.00 0.00 0.00 0.00 0.00 0.00 0.00 0.00 0.00 0.00 0.00 0.00 0.00 0.00 0.00 0.00 0.00 0.00 0.00 0.00 0.00 0.00 0.00
0.00 0.00 0.00 0.00 0.00 0.00 0.00 0.00 0.00 0.00 0.00 0.00 0.00 0.00 0.00 0.00 0.00 0.00 0.00 0.00 0.00 0.00 0.00 0.00 0.00 0.00 0.00 0.00 0.00 0.00 0.00 0.00 0.00 0.00 0.00 0.00 0.00 0.00 0.00 0.00 0.00 0.00 0.00 0.00
0.00 0.00 0.00 0.00 0.00 0.00 0.00 0.00 0.00 0.00 0.00 0.00 0.00 0.00 0.00 0.00 0.00 0.00 0.00 0.00 0.00 0.00 0.00 0.00 0.00 0.00 0.00 0.00 0.00 0.00 0.00 0.00 0.00 0.00 0.00 0.00 0.00 0.00 0.00 0.00 0.00 0.01 0.08 0.01
0.00 0.00 0.00 0.00 0.00 0.00 0.00 0.00 0.00 0.00 0.00 0.00 0.00 0.00 0.00 0.00 0.00 0.00 0.00 0.00 0.00 0.00 0.00 0.00 0.00 0.00 0.00 0.00 0.00 0.00 0.00 0.00 0.00 0.00 0.00 0.00 0.00 0.00 0.00 0.02 0.05 0.11 0.03 0.00
0.00 0.00 0.00 0.00 0.00 0.00 0.00 0.00 0.00 0.00 0.00 0.00 0.00 0.00 0.00 0.00 0.00 0.00 0.00 0.00 0.00 0.00 0.00 0.00 0.00 0.00 0.00 0.00 0.00 0.00 0.00 0.00 0.00 0.00 0.00 0.00 0.00 0.00 0.00 0.05 0.12 0.08 0.01 0.00
0.00 0.01 0.01 0.00 0.00 0.00 0.00 0.00 0.00 0.00 0.00 0.00 0.00 0.00 0.00 0.00 0.00 0.00 0.00 0.00 0.00 0.00 0.00 0.00 0.00 0.00 0.00 0.00 0.00 0.00 0.00 0.00 0.00 0.00 0.00 0.00 0.00 0.00 0.00 0.02 0.03 0.01 0.00 0.00
0.01 0.01 0.02 0.02 0.05 0.03 0.01 0.01 0.01 0.03 0.01 0.00 0.00 0.00 0.00 0.00 0.00 0.03 0.07 0.08 0.06 0.04 0.03 0.01 0.00 0.00 0.00 0.00 0.00 0.00 0.00 0.00 0.00 0.00 0.01 0.00 0.00 0.00 0.00 0.00 0.01 0.00 0.00 0.00
0.00 0.01 0.03 0.08 0.12 0.08 0.05 0.06 0.03 0.01 0.00 0.00 0.00 0.00 0.00 0.00 0.00 0.05 0.10 0.14 0.13 0.20 0.24 0.19 0.04 0.00 0.00 0.01 0.03 0.06 0.06 0.06 0.10 0.17 0.21 0.11 0.02 0.00 0.00 0.00 0.00 0.00 0.00 0.00
MSLP
1000.02 1000.41 999.91 1000.31 1000.44 1000.49 1000.19 999.60 998.80 997.63 997.58 999.22 1000.25 1000.95 1001.08 1001.21 1001.95 1002.66 1002.72 1003.47 1004.37 1005.19 1005.74 1006.48 1006.93 1007.61 1008.50 1009.12 1009.77 1010.43 1011.18 1011.99 1012.72 1013.41 1013.91 1014.46 1014.75 1014.76 1014.83 1014.61 1014.95 1015.28 1015.54 1015.82
999.98 999.30 999.78 999.91 999.82 999.98 999.60 999.11 998.31 997.90 997.00 998.19 1000.35 1000.67 1000.71 1000.60 1000.64 1001.43 1001.99 1002.46 1003.14 1004.05 1004.80 1005.59 1006.28 1006.93 1007.79 1008.65 1009.31 1010.01 1010.58 1011.47 1012.27 1012.87 1013.37 1013.80 1014.19 1014.45 1014.46 1014.49 1014.60 1014.71 1015.23 1015.58
998.97 998.65 999.27 999.16 998.97 998.95 998.72 998.39 997.85 998.15 997.74 998.14 1000.48 1000.99 1001.27 1000.64 1000.21 1000.81 1001.21 1001.28 1002.16 1002.65 1003.58 1004.50 1005.38 1006.09 1006.89 1007.84 1008.71 1009.45 1010.10 1010.88 1011.68 1012.32 1012.97 1013.55 1013.99 1014.26 1014.38 1014.45 1014.69 1014.70 1014.85 1015.22
998.13 998.22 998.09 998.07 997.85 997.96 997.81 997.30 997.62 997.72 998.10 998.86 999.65 1000.58 1001.11 1000.26 999.92 999.92 1000.37 1000.44 1000.95 1001.71 1002.35 1003.32 1004.20 1005.09 1005.88 1006.91 1007.85 1008.80 1009.49 1010.24 1011.05 1011.80 1012.58 1013.21 1013.59 1014.12 1014.04 1013.98 1014.05 1014.32 1014.55 1015.04
996.51 996.89 996.89 996.81 996.84 996.99 996.33 997.12 997.28 997.28 997.63 997.88 998.49 999.38 999.51 999.27 999.50 999.18 998.92 999.22 999.71 1000.48 1001.24 1002.03 1002.84 1003.59 1004.47 1005.63 1006.74 1007.76 1008.68 1009.59 1010.34 1011.18 1011.85 1012.65 1013.19 1013.45 1013.54 1013.71 1013.82 1014.27 1014.59 1014.54
995.87 995.77 995.81 995.69 995.90 995.95 996.32 996.82 997.01 997.24 997.52 997.96 997.93 999.20 998.14 997.97 997.52 997.40 997.16 997.69 998.27 999.39 1000.01 1000.94 1001.67 1002.77 1003.72 1004.68 1005.82 1006.96 1007.96 1008.85 1009.59 1010.37 1011.24 1011.95 1012.57 1012.88 1013.20 1013.43 1013.74 1014.01 1014.28 1014.52
995.45 995.00 994.91 994.75 995.01 995.22 995.62 996.57 997.24 997.62 997.36 996.97 997.11 997.25 996.31 995.75 995.69 995.30 995.81 996.69 997.29 998.35 999.20 999.94 1001.07 1001.97 1002.86 1003.81 1004.87 1006.12 1007.16 1008.13 1008.91 1009.67 1010.41 1011.16 1011.76 1012.20 1012.54 1012.90 1013.25 1013.75 1014.25 1014.35
995.20 994.69 993.83 993.43 993.69 994.27 994.75 995.82 996.33 996.64 996.92 997.09 996.41 995.50 994.64 993.88 993.33 993.57 994.34 995.24 996.08 996.58 997.43 998.55 999.48 1000.52 1001.67 1002.90 1004.02 1005.08 1006.23 1007.32 1008.12 1008.89 1009.62 1010.35 1010.98 1011.47 1011.96 1012.30 1012.82 1013.10 1013.44 1013.81
994.30 993.72 993.07 992.95 992.76 993.41 994.16 993.85 995.42 997.01 997.21 997.06 995.86 994.75 993.46 992.96 992.56 993.05 993.66 994.12 995.10 995.52 996.89 997.26 998.40 999.44 1000.63 1001.87 1002.93 1003.98 1005.46 1006.46 1007.29 1008.00 1008.80 1009.56 1010.24 1010.79 1011.21 1011.60 1012.01 1012.43 1012.66 1013.17
993.41 993.28 992.69 992.23 992.34 992.41 992.54 994.04 995.05 995.54 996.73 996.46 995.70 994.49 993.21 992.43 992.26 992.62 993.08 993.56 993.81 994.52 995.01 996.17 997.33 998.39 999.47 1000.36 1001.64 1003.04 1004.25 1005.25 1006.37 1007.29 1007.90 1008.61 1009.27 1010.03 1010.56 1011.04 1011.34 1011.70 1012.07 1012.44
992.86 993.20 992.30 991.73 991.01 991.66 992.25 992.72 994.03 994.96 995.83 995.93 995.67 993.48 992.48 991.81 991.86 992.07 992.57 992.50 992.30 992.91 993.39 994.87 995.93 996.98 998.17 999.52 1000.81 1001.99 1003.28 1004.52 1005.58 1006.37 1007.03 1007.71 1008.38 1009.21 1010.01 1010.40 1010.62 1010.94 1011.40 1011.96
991.27 992.13 992.00 990.95 990.67 990.32 990.89 991.77 993.28 994.66 995.27 995.47 995.34 992.96 991.53 991.47 991.38 990.06 990.28 991.09 991.45 991.92 992.49 993.55 994.79 996.16 997.87 998.36 999.77 1000.88 1002.19 1003.30 1004.24 1005.25 1006.22 1006.85 1007.61 1008.42 1009.19 1009.57 1009.92 1010.24 1010.76 1011.21
990.05 990.48 991.53 990.89 990.29 989.95 989.67 990.70 991.82 992.98 994.56 994.57 994.88 992.11 991.55 991.09 991.31 991.05 991.37 992.02 991.66 991.78 992.39 992.80 993.96 995.47 996.62 997.66 998.67 999.92 1001.02 1002.10 1003.30 1004.43 1005.32 1006.21 1006.84 1007.47 1008.03 1008.56 1009.08 1009.56 1009.94 1010.44
991.02 989.03 989.07 989.09 989.08 989.68 989.35 989.62 990.51 991.86 992.72 992.97 992.53 992.83 991.89 991.06 990.87 989.92 991.05 991.10 991.21 992.13 992.02 992.58 993.38 994.48 995.59 996.63 997.70 998.85 999.91 1000.95 1002.16 1003.29 1004.27 1005.09 1005.70 1006.16 1006.77 1007.46 1008.14 1008.67 1009.14 1009.68
990.99 989.50 988.37 988.56 989.05 988.83 988.72 988.71 989.01 989.82 990.71 991.80 991.92 992.12 991.48 991.27 990.95 990.50 990.02 990.35 991.42 991.49 991.64 992.17 992.86 994.02 995.00 995.91 996.80 997.76 998.72 999.78 1000.89 1002.07 1003.04 1003.70 1004.48 1005.23 1006.14 1006.82 1007.30 1007.92 1008.52 1008.90
992.77 990.59 988.45 988.26 988.23 988.23 988.03 987.80 988.12 988.40 989.31 990.05 990.66 990.37 990.39 990.55 990.33 990.41 990.08 990.12 990.39 991.24 991.62 991.71 992.42 993.17 994.15 994.96 995.87 996.72 997.80 998.69 999.70 1000.73 1001.55 1002.77 1003.73 1004.54 1005.22 1005.97 1006.56 1007.17 1007.77 1008.51
995.02 992.45 990.10 988.71 988.14 988.34 988.04 986.26 987.32 987.45 987.63 988.52 989.08 989.29 990.29 990.37 990.48 990.36 990.29 990.05 989.84 990.64 991.28 991.66 991.88 992.56 993.35 994.11 994.81 995.77 996.34 997.51 998.67 999.52 1000.51 1001.53 1002.64 1003.44 1004.19 1005.07 1005.79 1006.38 1006.98 1007.73
994.35 993.57 991.91 988.95 988.99 988.34 986.27 985.97 986.29 987.01 987.21 987.47 988.11 988.86 989.22 989.35 989.53 989.99 989.74 990.10 990.42 990.36 990.83 990.93 991.15 991.88 992.75 993.30 994.20 994.71 995.75 996.57 997.43 998.48 999.38 1000.22 1001.20 1002.21 1003.25 1004.14 1004.77 1005.56 1006.30 1006.86
993.19 992.74 991.97 989.84 988.93 987.75 986.85 986.11 986.06 986.56 987.13 987.51 988.09 988.29 988.90 988.55 988.67 989.17 989.39 989.25 989.49 989.68 989.93 990.60 990.71 991.22 991.78 992.18 992.92 994.14 995.23 995.79 996.65 997.54 998.30 999.03 999.95 1001.04 1002.21 1003.06 1003.88 1004.70 1005.52 1006.33
992.06 991.67 991.61 990.21 989.24 987.83 986.89 986.65 986.34 986.60 987.76 987.71 988.08 988.76 989.12 989.23 989.79 989.79 989.64 989.84 989.89 989.64 989.05 989.47 989.81 991.16 991.22 991.55 992.05 993.02 993.82 994.92 995.66 996.30 996.91 997.95 999.04 1000.05 1001.13 1002.17 1003.27 1004.05 1004.95 1005.87
992.80 992.00 991.36 990.03 989.57 988.25 986.91 987.01 987.01 987.98 988.93 988.48 988.53 989.13 989.53 990.13 990.44 990.08 989.25 989.29 989.50 989.06 988.95 988.79 989.42 990.00 990.55 991.10 991.71 992.40 993.03 993.65 993.95 995.34 996.74 997.74 998.58 999.51 1000.46 1001.62 1002.71 1003.71 1004.71 1005.62
995.82 996.01 993.66 991.39 990.25 989.29 987.83 987.90 988.32 989.06 989.10 989.34 989.49 989.79 990.14 990.35 990.44 990.31 989.87 989.30 988.97 989.05 988.91 988.76 989.04 989.41 989.48 990.21 990.92 992.16 992.67 992.83 994.11 995.21 996.24 997.34 998.23 999.29 1000.22 1001.25 1002.54 1003.65 1004.53 1005.49
997.71 997.53 996.75 994.16 991.43 989.68 989.24 989.44 989.43 989.49 990.07 990.82 990.55 990.68 990.75 991.40 991.87 991.56 991.07 990.49 990.17 989.54 989.03 988.76 988.95 989.23 989.37 989.47 990.10 991.45 992.34 992.96 994.19 995.43 996.45 997.42 998.31 999.28 1000.27 1001.45 1003.04 1004.10 1004.78 1005.88
997.72 997.74 996.90 995.20 991.94 990.43 990.58 990.33 990.79 991.37 991.63 991.91 992.00 992.14 992.20 992.74 992.89 992.67 992.30 992.08 991.84 991.39 990.48 989.75 989.59 989.87 990.63 990.35 991.01 991.61 992.20 993.11 994.22 995.77 997.02 998.09 998.86 1000.06 1001.23 1002.39 1003.16 1004.25 1005.41 1005.81
998.99 999.35 998.05 995.79 993.86 994.09 992.17 991.89 991.93 992.11 992.81 993.18 993.44 993.75 993.72 993.67 994.30 994.22 993.98 993.60 993.42 993.05 992.52 991.50 990.66 990.71 991.44 992.04 992.42 992.49 992.88 993.81 995.10 996.56 997.89 999.03 1000.00 1000.97 1002.39 1003.75 1004.77 1004.95 1005.15 1005.73
1000.58 1000.06 999.03 997.87 997.12 994.58 994.69 994.05 993.12 992.78 993.94 993.84 994.21 994.66 994.81 994.97 995.54 995.45 995.39 995.13 994.57 994.26 992.98 993.55 992.38 991.93 992.19 992.62 993.53 994.14 994.50 994.50 996.05 997.69 998.95 999.83 1000.81 1001.96 1002.78 1004.10 1005.52 1006.05 1006.42 1006.23
Thickness
5818 5795 5795 5804 5815 5822 5823 5820 5821 5852 5873 5839 5833 5832 5842 5848 5840 5835 5842 5836 5831 5829 5835 5836 5837 5837 5833 5831 5828 5825 5822 5817 5812 5806 5802 5798 5796 5799 5799 5803 5801 5798 5795 5792
5800 5794 5816 5825 5824 5819 5821 5818 5819 5846 5872 5846 5829 5830 5844 5848 5853 5847 5846 5842 5841 5840 5839 5838 5840 5840 5837 5832 5831 5827 5826 5821 5816 5811 5807 5805 5803 5802 5803 5803 5802 5801 5796 5793
5795 5813 5824 5820 5816 5813 5817 5815 5825 5823 5852 5854 5824 5811 5816 5842 5856 5853 5853 5855 5852 5851 5848 5845 5843 5843 5842 5836 5832 5830 5828 5824 5820 5815 5810 5806 5804 5802 5801 5801 5800 5800 5798 5794
5807 5823 5817 5812 5811 5821 5800 5843 5842 5835 5828 5796 5830 5781 5804 5832 5841 5848 5849 5855 5857 5857 5861 5857 5853 5849 5848 5842 5840 5835 5831 5826 5822 5819 5811 5805 5800 5794 5800 5803 5804 5802 5798 5793
5812 5814 5812 5808 5814 5828 5827 5844 5840 5842 5828 5822 5826 5798 5811 5835 5824 5840 5852 5862 5865 5866 5865 5863 5862 5862 5860 5855 5847 5841 5835 5829 5825 5820 5815 5808 5802 5803 5804 5803 5802 5799 5797 5795
5823 5839 5828 5825 5833 5836 5847 5833 5834 5836 5826 5789 5814 5805 5803 5821 5836 5849 5867 5870 5875 5871 5874 5871 5872 5868 5862 5860 5852 5845 5837 5831 5828 5824 5817 5811 5805 5804 5801 5800 5798 5796 5795 5793
5814 5819 5833 5840 5818 5830 5829 5801 5776 5769 5775 5769 5822 5811 5816 5857 5867 5874 5874 5873 5877 5878 5875 5873 5868 5866 5862 5858 5854 5846 5838 5832 5830 5824 5820 5814 5810 5807 5803 5802 5800 5795 5791 5792
5776 5773 5823 5844 5826 5812 5814 5807 5777 5740 5762 5781 5821 5799 5829 5883 5898 5896 5892 5884 5886 5880 5884 5879 5879 5875 5869 5862 5856 5850 5841 5833 5831 5826 5821 5818 5813 5810 5806 5805 5802 5799 5796 5795
5781 5786 5838 5839 5846 5835 5808 5800 5827 5782 5795 5774 5808 5829 5865 5882 5892 5894 5886 5889 5881 5888 5879 5882 5884 5882 5875 5867 5862 5855 5843 5836 5832 5828 5822 5818 5815 5811 5809 5808 5806 5802 5801 5799
5798 5771 5820 5835 5842 5839 5826 5835 5786 5797 5750 5752 5794 5803 5819 5857 5874 5879 5879 5882 5891 5890 5895 5886 5887 5887 5884 5879 5870 5862 5853 5843 5835 5829 5825 5820 5817 5813 5812 5809 5807 5806 5804 5802
5805 5786 5798 5821 5814 5809 5812 5808 5804 5801 5792 5762 5757 5795 5857 5864 5877 5876 5881 5894 5897 5895 5899 5891 5894 5895 5891 5885 5873 5866 5857 5846 5838 5833 5828 5823 5818 5815 5813 5811 5810 5810 5808 5803
5808 5789 5768 5793 5827 5842 5834 5814 5804 5771 5759 5775 5780 5792 5874 5882 5882 5899 5900 5903 5903 5901 5901 5902 5898 5893 5885 5887 5878 5870 5862 5854 5847 5840 5832 5826 5821 5818 5815 5814 5813 5813 5809 5807
5814 5784 5752 5771 5799 5819 5815 5822 5816 5812 5789 5768 5750 5796 5870 5879 5875 5882 5882 5881 5895 5900 5899 5902 5897 5889 5889 5886 5882 5874 5867 5861 5853 5845 5837 5829 5825 5823 5821 5819 5817 5814 5813 5809
5791 5798 5779 5762 5784 5803 5796 5813 5819 5805 5779 5786 5790 5799 5832 5862 5864 5885 5878 5884 5892 5883 5892 5895 5893 5891 5891 5890 5884 5878 5872 5868 5859 5851 5843 5836 5832 5831 5829 5825 5821 5817 5814 5809
5769 5764 5790 5793 5800 5809 5808 5811 5816 5801 5806 5778 5801 5800 5824 5847 5855 5870 5885 5882 5882 5884 5889 5889 5890 5888 5889 5888 5886 5883 5878 5872 5866 5857 5850 5845 5841 5835 5829 5825 5823 5820 5815 5811
5732 5745 5780 5778 5796 5801 5797 5813 5818 5818 5815 5808 5809 5810 5841 5857 5864 5867 5873 5881 5882 5880 5884 5888 5890 5891 5886 5888 5887 5886 5880 5875 5870 5863 5858 5850 5843 5837 5832 5827 5823 5819 5814 5808
5696 5719 5745 5745 5780 5777 5766 5799 5805 5816 5827 5817 5795 5826 5838 5838 5851 5861 5867 5872 5877 5876 5880 5882 5885 5887 5886 5886 5885 5881 5884 5881 5871 5865 5861 5854 5847 5840 5835 5829 5823 5819 5814 5809
5695 5699 5715 5739 5754 5721 5784 5820 5822 5815 5824 5832 5828 5829 5833 5838 5852 5859 5870 5864 5865 5872 5877 5881 5888 5886 5885 5888 5883 5884 5883 5879 5873 5866 5863 5859 5852 5845 5838 5830 5825 5819 5814 5809
5710 5704 5705 5711 5726 5754 5778 5799 5808 5802 5804 5833 5824 5830 5836 5840 5854 5854 5864 5869 5866 5877 5877 5874 5884 5887 5887 5889 5889 5880 5874 5875 5870 5865 5864 5862 5857 5847 5839 5831 5825 5820 5813 5805
5712 5716 5706 5711 5707 5711 5766 5801 5823 5819 5773 5820 5819 5815 5818 5826 5801 5819 5849 5855 5859 5865 5878 5882 5884 5877 5881 5883 5886 5879 5876 5869 5866 5868 5869 5865 5858 5849 5840 5834 5825 5819 5811 5802
5674 5686 5688 5708 5708 5732 5776 5799 5811 5754 5759 5807 5815 5813 5812 5805 5812 5830 5849 5853 5857 5865 5869 5876 5875 5874 5877 5879 5877 5873 5874 5870 5877 5871 5862 5857 5854 5847 5841 5832 5824 5814 5802 5795
5620 5611 5655 5696 5704 5702 5777 5782 5766 5769 5789 5795 5800 5807 5810 5815 5821 5827 5835 5843 5854 5859 5861 5867 5868 5870 5875 5880 5878 5865 5865 5875 5867 5861 5856 5849 5847 5842 5836 5827 5816 5804 5794 5786
5612 5625 5626 5673 5702 5739 5757 5759 5771 5773 5774 5775 5785 5793 5802 5798 5798 5805 5812 5823 5830 5840 5848 5857 5860 5863 5867 5872 5874 5861 5859 5862 5856 5850 5844 5839 5836 5832 5826 5816 5802 5791 5785 5774
5623 5631 5638 5658 5700 5722 5733 5747 5747 5752 5757 5764 5771 5778 5782 5778 5781 5786 5796 5803 5808 5813 5825 5838 5843 5845 5845 5853 5852 5853 5852 5853 5848 5837 5829 5824 5821 5813 5807 5800 5794 5784 5771 5767
5609 5614 5632 5659 5688 5694 5720 5725 5734 5742 5746 5747 5751 5756 5761 5764 5761 5765 5770 5778 5784 5792 5799 5812 5822 5826 5825 5827 5828 5832 5835 5834 5830 5821 5814 5806 5800 5793 5782 5771 5768 5770 5762 5758
5593 5606 5623 5641 5657 5652 5670 5696 5715 5728 5724 5735 5737 5741 5744 5745 5743 5747 5749 5756 5765 5771 5783 5761 5793 5805 5807 5809 5805 5804 5809 5816 5808 5796 5790 5782 5779 5775 5771 5761 5750 5741 5738 5739